CUTE-1 (CO-55)

Last updated on Sat Feb 08 2025 00:03:03 GMT+0000 (Coordinated Universal Time)

1 27844U 03031E 25037.92051951 .00000810 00000+0 37300-3 0 9995 2 27844 98.6788 47.7727 0009694 177.1638 182.9597 14.23807404121185
UTC large
Height (km)
Speed (km/s)
/
Latitude / Longitude
Inclination (degrees)
Orbital Period (minutes)
Azimuth
Elevation
Range (km)
Doppler Factor

Next 0 passes for location: London (51.5072 / 0.1276)

Sorry there are no passes over London.